Погода в Сагизе

Поиск расширенной информации на нашем сайте:

Полезная информация:

Новости сайта



02.01.2020
Опубликован Долгосрочный прогноз погоды по городам России и ближнего зарубежья на январь 2020 года.
Карты: Прогноз на январь и февраль 2020 года, Сравнение прогнозируемой аномалии приземной температуры воздуха на январь 2020 года по разным моделям.




Погода в Сагизе - сегодня

Время (UTC), дата Ветер
(°,м/с) 
Видим.   Явления Облачность Т
(°С)
Тd
(°С)
f(%) Тe
(°С)
Pmin
(гПа)
dP
(гПа)
Po
(мм)
O2
(г/м3)
Тmin Tmax R s Состояние
почвы
12 22.10.21 250 (З) 10  20000 м  пыльный позёмок  3/0 верхняя 
[Ci fib]
+15.8 +1.1 37 +15  1020.6  -0.2  760  289           
15 22.10.21 230 (ЮЗ) 20000 м    3/0 средняя 
[Ac lent]
+12.2 +4.8 61 +11  1021.2  -0.4  761  293    +16.1       
18 22.10.21 230 (ЮЗ) 20000 м    3/0 средняя 
[Ac lent]
+10.3 +4.8 69 +9  1021.3  -0.1  761  295    +16.1       
21 22.10.21 230 (ЮЗ) 20000 м    3/0 средняя 
[Ac lent]
+11 +7 76 +9  1021.2  -0.1  761  294           
00 23.10.21 250 (З) 20000 м    5/5 600 м кучево-дожд. 
[Cb calv]
+10.8 +7.4 79 +9  1021.9  0.7  761  294           
03 23.10.21 200 (Ю) 20000 м    6/6 600 м кучево-дожд. 
[Cb calv]
+11.6 +9.4 86 +10  1021.8  -0.1  761  293           
06 23.10.21 230 (ЮЗ) 20000 м    4/4 1000 м 
[Cu hum]
+13.8 +9.7 76 +13  1023.3  1.5  762  291  +10.1         
09 23.10.21 200 (Ю) 10  20000 м  пыльный позёмок  6/6 1000 м 
[Cu hum]
+17.5 +8.8 57 +17  1022.9  -0.3  762  287           
12 23.10.21 230 (ЮЗ) 20000 м  пыльный позёмок  3/3 1000 м 
[Cu hum]
+18.5 +9.2 55 +18  1022.1  -0.7  762  286           
15 23.10.21 180 (Ю) 20000 м    ясно 
+11.2 +4.3 62 +11  1022.6  0.4  762  294    +18.7       
18 23.10.21 140 (ЮВ) 20000 м    ясно 
+7.5 +2.5 71 +7  1022.5  -0.3  762  298    +18.7       
21 23.10.21 110 (В) 20000 м    ясно 
+5.2 -2.3 58 +4  1021.9  -0.7  761  301           
00 24.10.21 050 (СВ) 20000 м    ясно 
+3.8 -4.2 56 +3  1020.7  -1.2  760  303           
03 24.10.21 110 (В) 20000 м    ясно 
+2.5 -4.9 58 +1  1020.2  -0.5  760  304           
06 24.10.21 110 (В) 20000 м    ясно 
+12.1 -5 30 +11  1019.7  -0.3  760  294  +2.3         
09 24.10.21 160 (Ю) 20000 м    ясно 
+17.3 -4.7 22 +17  1018.5  -0.9  759  288           
12 24.10.21 180 (Ю) 20000 м    3/0 верхняя 
[Ci fib]
+19 -5 19 +19  1017.4  -1.2  758  286           
15 24.10.21 160 (Ю) 20000 м    3/0 верхняя 
[Ci fib]
+8.7 -8.2 29 +9  1017.7  758  297    +19.3       
18 24.10.21 140 (ЮВ) 20000 м    5/0 верхняя 
[Ci ing]
+5.9 -7.7 37 +6  1016.8  -0.4  757  299    +19.3       
21 24.10.21 110 (В) 20000 м    9/0 верхняя 
[Cs]
+4.7 -7.4 41 +4  1016  -0.9  757  300           
00 25.10.21 090 (В) 20000 м    9/0 верхняя 
[Ci sp]
+3.5 -7.6 44 +3  1014.8  -1.2  756  301           
03 25.10.21 070 (В) 20000 м    8/0 средняя, верхняя 
[Ac lent|Ci fib]
+2 -7.7 49 +1  1015  0.2  756  303           
06 25.10.21 360 (С) 20000 м    9/0 средняя 
[Ac trans]
+6.5 -5.3 43 +6  1015.2  0.3  756  298  +1.8         
09 25.10.21 020 (С) 20000 м    8/8 1000 м 
[Sc]
+10.1 +4.8 70 +8  1015.8  0.4  756  293           
12 25.10.21 340 (С) 20000 м    6/6 1000 м 
[Sc]
+9.9 +2.3 59 +8  1016.8  1.2  757  294           
Время (UTC), дата Ветер
(°,м/с) 
Видим.   Явления Облачность Т
(°С)
Тd
(°С)
f(%) Тe
(°С)
Pmin
(гПа)
dP
(гПа)
Po
(мм)
O2
(г/м3)
Тmin Tmax R s Состояние
почвы

Для получения пояснительной информации подведите курсор к названию столбца.

ПОГОДА в Сагизе - архив

Всё, что Вы хотите узнать о погоде в Сагизе - удобно и подробно!

Выберите нужную дату (начиная с 1 января 2019* года) и нажмите кнопку "Найти".
Будут отображены архивные сводки погоды по пункту Сагиз, начиная с указанной даты.


Отображать данные в формате CSV (для использования в таблицах Excel)


Внимание! Наш архив погоды предназначен исключительно для личного некоммерческого использования в познавательных целях. Если Вам необходимы официальные справки о состоянии погоды (для производственных, юридических, коммерческих и т.п. целей), обращайтесь в органы Росгидромета.

*Примечание: данная дата относится к архиву по метеостанциям СССР (Россия, СНГ, Балтия).
Архив по метеостанциям Зарубежной Европы и Азии (кроме Китая) хранится 10 дней, по другим регионам земного шара (Китай, Африка, Америка, Австралия, Океания) - 1 день.

Сагиз - район местоположения метеостанции


Название, широта, долгота, высота метеостанции:
Сагиз 48.2°ш. 54.9°д. 73 м над ур. моря [Казахстан]

Дополнительная информация

В oтличие oт бoльшинства пoгoдных сайтoв мы публикуем пoдрoбную метеoинфoрмацию в детальнoм прoфессиoнальнoм фoрмате.

Характеристики температуры и влажнoсти вoздуха измеряются на высoте 2 м в тени вдали oт зданий и деревьев.
Скoрoсть ветра измеряется на высoте 10 м (на урoвне рoста челoвека скoрoсть ветра ниже в 1.5-2 раза). Если метеoстанция нахoдится в гoрoде или в лесу, тo скoрoсть ветра занижена на 2-4 м/с пo сравнению с oткрытым местoм. Скoрoсть ветра над акватoриями крупных рек и oзёр, а также на вершинах хoлмoв на 2-5 м/с выше, чем в oбычных услoвиях.
Атмoсфернoе давление в разных тoчках местнoсти мoжет значительнo oтличаться oт давления на метеoстанции, в зависимoсти oт услoвий рельефа (при пoдъёме на 10 м давление пoнижается примернo на 1 мм рт.ст.).